contact:dominique.lefevre@mio.osupytheas.fr, maurice.libes@osupytheas.fr, didier.mallarino@osupytheas.fr
Project:EMSO http://www.emso-fr.org/EMSO-France
Depth: 2436.0 m
Title:EMSO Ligure Ouest : Data MII capteur AQUADOPP
Date,Latitude,Longitude,X_East,Y_North,Z_Up,Amplitude_X,Amplitude_Y,Amplitude_Z,Batterie,SoundSpeed,Heading,Pitch,Roll,Pressure,TIS,Speed,Direction
, degrees North, degrees East, m.s-1, m.s-1,m.s-1, 1, 1, 1, Volt, m.s-1, degree, degree, degree, dbar, degree_C, m.s-1, degree
2020-06-06T00:04:03,42.805,6.029,0.057,-0.002,0.013,103.0,108.0,102.0,13.4,1505.2,323.9,-0.7,1.8,2470.329,13.3,0.057,92.0
2020-06-06T00:07:03,42.805,6.029,0.062,-0.013,-0.016,104.0,106.0,102.0,13.4,1505.3,326.3,-0.8,1.9,2470.32,13.31,0.063,101.8
2020-06-06T00:10:03,42.805,6.029,0.009,-0.029,-0.016,104.0,106.0,102.0,13.4,1505.3,324.3,-0.7,1.8,2470.311,13.31,0.03,162.8
2020-06-06T00:13:03,42.805,6.029,0.031,-0.014,-0.042,104.0,106.0,103.0,13.3,1505.3,328.4,-0.7,1.8,2470.355,13.32,0.034,114.3
2020-06-06T00:16:03,42.805,6.029,0.044,-0.015,-0.018,104.0,106.0,102.0,13.3,1505.3,327.2,-0.7,1.8,2470.325,13.32,0.046,108.8
2020-06-06T00:19:03,42.805,6.029,0.032,0.001,0.022,103.0,105.0,102.0,13.3,1505.3,325.4,-0.7,1.8,2470.292,13.32,0.032,88.2
2020-06-06T00:22:03,42.805,6.029,0.05,-0.027,-0.006,104.0,107.0,102.0,13.4,1505.3,326.4,-0.7,1.8,2470.379,13.32,0.056,118.4
2020-06-06T00:25:03,42.805,6.029,0.044,-0.018,0.016,106.0,107.0,102.0,13.4,1505.3,327.8,-0.7,1.8,2470.264,13.32,0.047,112.2
2020-06-06T00:28:03,42.805,6.029,0.024,-0.025,-0.009,104.0,106.0,102.0,13.4,1505.3,325.5,-0.7,1.8,2470.325,13.32,0.034,136.2
2020-06-06T00:31:03,42.805,6.029,0.063,-0.023,-0.035,105.0,105.0,103.0,13.3,1505.3,325.4,-0.7,1.9,2470.247,13.32,0.067,110.1
2020-06-06T00:34:03,42.805,6.029,0.029,-0.012,-0.012,104.0,106.0,102.0,13.4,1505.3,328.2,-0.7,1.8,2470.321,13.32,0.031,112.5
2020-06-06T00:37:03,42.805,6.029,0.058,-0.025,-0.012,103.0,106.0,102.0,13.4,1505.3,325.0,-0.7,1.9,2470.252,13.32,0.063,113.3
2020-06-06T00:40:03,42.805,6.029,0.04,-0.01,-0.024,106.0,106.0,101.0,13.4,1505.3,328.5,-0.7,1.8,2470.297,13.32,0.041,104.0
2020-06-06T00:43:03,42.805,6.029,0.07,-0.006,-0.004,106.0,105.0,102.0,13.4,1505.3,324.2,-0.7,1.8,2470.265,13.32,0.07,94.9
2020-06-06T00:46:03,42.805,6.029,0.062,-0.025,0.002,104.0,106.0,101.0,13.3,1505.3,324.3,-0.7,1.9,2470.261,13.32,0.066,112.0
2020-06-06T00:49:03,42.805,6.029,0.031,-0.006,-0.016,105.0,106.0,102.0,13.3,1505.3,328.7,-0.8,1.8,2470.261,13.32,0.031,101.0
2020-06-06T00:52:03,42.805,6.029,0.03,-0.041,-0.047,105.0,105.0,101.0,13.3,1505.3,326.7,-0.7,1.8,2470.251,13.32,0.05,143.8
2020-06-06T00:55:03,42.805,6.029,0.042,-0.007,-0.013,106.0,105.0,102.0,13.4,1505.3,326.4,-0.7,1.8,2470.231,13.32,0.042,99.5
2020-06-06T00:58:03,42.805,6.029,0.032,-0.013,-0.012,105.0,106.0,102.0,13.4,1505.3,324.9,-0.7,1.8,2470.256,13.32,0.034,112.1
2020-06-06T01:04:03,42.805,6.029,0.077,-0.016,-0.03,106.0,108.0,103.0,13.4,1505.2,326.6,-0.8,1.8,2470.257,13.3,0.078,101.7
2020-06-06T01:07:03,42.805,6.029,0.063,-0.027,-0.008,104.0,107.0,102.0,13.4,1505.3,326.3,-0.7,1.9,2470.28,13.31,0.068,113.2
2020-06-06T01:10:03,42.805,6.029,0.052,-0.009,-0.009,105.0,106.0,102.0,13.4,1505.3,323.8,-0.7,1.9,2470.281,13.31,0.052,99.8
2020-06-06T01:13:03,42.805,6.029,0.03,-0.012,0.005,105.0,106.0,102.0,13.4,1505.3,324.2,-0.7,1.8,2470.31,13.32,0.032,111.8
2020-06-06T01:16:03,42.805,6.029,0.038,-0.005,-0.009,104.0,105.0,102.0,13.4,1505.3,326.5,-0.7,1.8,2470.268,13.32,0.038,97.5
2020-06-06T01:19:03,42.805,6.029,0.018,-0.032,-0.019,104.0,106.0,103.0,13.4,1505.3,326.7,-0.7,1.9,2470.273,13.32,0.036,150.6
2020-06-06T01:22:03,42.805,6.029,0.049,-0.011,-0.039,106.0,106.0,102.0,13.4,1505.3,326.6,-0.7,1.8,2470.264,13.32,0.05,102.7
2020-06-06T01:25:03,42.805,6.029,0.039,-0.025,-0.01,104.0,106.0,103.0,13.4,1505.3,323.4,-0.7,1.8,2470.264,13.32,0.046,122.7
2020-06-06T01:28:03,42.805,6.029,0.071,-0.029,-0.006,104.0,105.0,101.0,13.3,1505.3,327.1,-0.7,1.8,2470.271,13.32,0.076,112.2
2020-06-06T01:31:03,42.805,6.029,0.057,-0.021,0.004,105.0,106.0,101.0,13.4,1505.3,325.3,-0.7,1.8,2470.263,13.32,0.06,110.2
2020-06-06T01:34:03,42.805,6.029,0.062,-0.042,0.011,104.0,107.0,102.0,13.4,1505.3,323.2,-0.8,1.8,2470.273,13.32,0.074,124.1
2020-06-06T01:37:03,42.805,6.029,0.06,-0.021,-0.029,104.0,107.0,102.0,13.3,1505.3,324.8,-0.7,1.8,2470.258,13.32,0.063,109.3
2020-06-06T01:40:03,42.805,6.029,0.024,-0.015,-0.008,106.0,108.0,102.0,13.4,1505.3,325.4,-0.7,1.8,2470.25,13.32,0.028,122.0
2020-06-06T01:43:03,42.805,6.029,0.021,-0.024,-0.035,104.0,107.0,102.0,13.3,1505.3,326.0,-0.7,1.9,2470.219,13.32,0.031,138.8
2020-06-06T01:46:03,42.805,6.029,0.024,-0.014,0.003,104.0,107.0,101.0,13.4,1505.3,327.0,-0.7,1.8,2470.249,13.32,0.027,120.3
2020-06-06T01:49:03,42.805,6.029,0.054,-0.007,0.006,105.0,106.0,102.0,13.3,1505.3,325.9,-0.7,1.8,2470.254,13.32,0.054,97.4
2020-06-06T01:52:03,42.805,6.029,0.035,-0.025,-0.03,105.0,106.0,102.0,13.3,1505.3,324.7,-0.7,1.8,2470.264,13.32,0.043,125.5
2020-06-06T01:55:03,42.805,6.029,0.052,-0.017,-0.005,104.0,105.0,102.0,13.3,1505.3,325.4,-0.7,1.8,2470.267,13.32,0.054,108.1
2020-06-06T01:58:03,42.805,6.029,0.033,-0.008,-0.025,104.0,106.0,103.0,13.4,1505.3,324.9,-0.7,1.8,2470.207,13.32,0.033,103.6
2020-06-06T02:04:03,42.805,6.029,0.04,-0.012,-0.007,104.0,106.0,103.0,13.4,1505.2,327.5,-0.7,1.8,2470.299,13.3,0.041,106.7
2020-06-06T02:07:03,42.805,6.029,0.033,-0.031,-0.014,104.0,106.0,101.0,13.4,1505.3,324.5,-0.7,1.8,2470.256,13.31,0.045,133.2
2020-06-06T02:10:03,42.805,6.029,0.044,-0.037,-0.025,106.0,107.0,101.0,13.3,1505.3,324.7,-0.7,1.8,2470.286,13.31,0.057,130.1
2020-06-06T02:13:03,42.805,6.029,0.039,-0.015,0.01,105.0,106.0,102.0,13.4,1505.3,322.7,-0.7,1.8,2470.268,13.32,0.041,111.0
2020-06-06T02:16:03,42.805,6.029,0.06,-0.017,-0.036,105.0,107.0,103.0,13.3,1505.3,328.1,-0.7,1.8,2470.263,13.32,0.062,105.8
2020-06-06T02:19:03,42.805,6.029,0.065,-0.029,0.003,104.0,107.0,101.0,13.4,1505.3,326.6,-0.7,1.9,2470.253,13.32,0.071,114.0
2020-06-06T02:22:03,42.805,6.029,0.06,0.008,-0.005,105.0,107.0,102.0,13.3,1505.3,325.8,-0.7,1.8,2470.224,13.32,0.06,82.4
2020-06-06T02:25:03,42.805,6.029,0.04,-0.013,-0.003,105.0,106.0,101.0,13.4,1505.3,325.1,-0.7,1.9,2470.28,13.32,0.042,108.0
2020-06-06T02:28:03,42.805,6.029,0.042,-0.019,-0.018,103.0,107.0,103.0,13.3,1505.3,323.7,-0.7,1.8,2470.261,13.32,0.046,114.3
2020-06-06T02:31:03,42.805,6.029,0.02,-0.004,-0.025,105.0,106.0,102.0,13.3,1505.3,325.4,-0.7,1.8,2470.227,13.32,0.02,101.3
2020-06-06T02:34:03,42.805,6.029,0.059,-0.016,0.008,106.0,107.0,102.0,13.3,1505.3,323.4,-0.7,1.8,2470.275,13.32,0.061,105.2
2020-06-06T02:37:03,42.805,6.029,0.041,-0.018,-0.007,105.0,108.0,102.0,13.3,1505.3,326.2,-0.7,1.8,2470.261,13.32,0.044,113.7
2020-06-06T02:40:03,42.805,6.029,0.054,-0.018,-0.014,105.0,108.0,102.0,13.4,1505.3,324.0,-0.7,1.9,2470.234,13.32,0.056,108.4
2020-06-06T02:43:03,42.805,6.029,0.053,-0.021,-0.04,104.0,108.0,103.0,13.4,1505.3,326.4,-0.7,1.8,2470.211,13.32,0.057,111.6
2020-06-06T02:46:03,42.805,6.029,0.049,-0.018,-0.007,105.0,107.0,103.0,13.4,1505.3,326.0,-0.7,1.9,2470.263,13.32,0.052,110.2
2020-06-06T02:49:03,42.805,6.029,0.029,0.007,0.02,104.0,107.0,103.0,13.4,1505.3,325.7,-0.7,1.8,2470.241,13.32,0.029,76.4
2020-06-06T02:52:03,42.805,6.029,0.042,-0.008,-0.019,104.0,107.0,102.0,13.4,1505.3,325.7,-0.7,1.8,2470.251,13.32,0.042,100.8
2020-06-06T02:55:03,42.805,6.029,0.017,-0.013,-0.03,105.0,106.0,102.0,13.4,1505.3,326.2,-0.7,1.8,2470.217,13.32,0.021,127.4
2020-06-06T02:58:03,42.805,6.029,0.04,-0.016,0.004,104.0,108.0,102.0,13.4,1505.3,324.7,-0.7,1.8,2470.262,13.32,0.043,111.8
2020-06-06T03:04:03,42.805,6.029,0.051,-0.015,-0.032,104.0,106.0,101.0,13.4,1505.2,325.6,-0.7,1.8,2470.317,13.3,0.053,106.4
2020-06-06T03:07:03,42.805,6.029,0.038,-0.005,-0.003,105.0,107.0,102.0,13.4,1505.3,326.5,-0.7,1.8,2470.258,13.31,0.038,97.5
2020-06-06T03:10:03,42.805,6.029,0.032,-0.01,0.0,105.0,107.0,102.0,13.3,1505.3,323.9,-0.7,1.8,2470.246,13.31,0.033,107.4
2020-06-06T03:13:03,42.805,6.029,0.04,-0.012,-0.015,104.0,107.0,102.0,13.3,1505.3,327.2,-0.7,1.8,2470.26,13.32,0.041,106.7
2020-06-06T03:16:03,42.805,6.029,0.015,0.017,-0.033,105.0,107.0,101.0,13.4,1505.3,324.8,-0.7,1.9,2470.293,13.32,0.022,41.4
2020-06-06T03:19:03,42.805,6.029,0.03,-0.012,-0.059,105.0,109.0,102.0,13.4,1505.3,327.9,-0.7,1.8,2470.285,13.32,0.032,111.8
2020-06-06T03:22:03,42.805,6.029,0.035,-0.013,-0.028,105.0,108.0,102.0,13.3,1505.3,324.2,-0.7,1.8,2470.26,13.32,0.037,110.4
2020-06-06T03:25:03,42.805,6.029,0.032,-0.019,-0.024,105.0,107.0,103.0,13.4,1505.3,326.5,-0.7,1.8,2470.273,13.32,0.037,120.7
2020-06-06T03:28:03,42.805,6.029,0.05,-0.001,-0.01,104.0,108.0,101.0,13.3,1505.3,325.1,-0.7,1.9,2470.287,13.32,0.05,91.1
2020-06-06T03:31:03,42.805,6.029,0.05,-0.016,-0.004,104.0,108.0,102.0,13.3,1505.3,325.4,-0.7,1.8,2470.275,13.32,0.052,107.7
2020-06-06T03:34:03,42.805,6.029,0.062,-0.014,0.025,105.0,108.0,101.0,13.4,1505.3,326.4,-0.7,1.8,2470.317,13.32,0.063,102.7
2020-06-06T03:37:03,42.805,6.029,0.04,-0.023,-0.016,105.0,106.0,102.0,13.4,1505.3,326.7,-0.7,1.8,2470.266,13.32,0.046,119.9
2020-06-06T03:40:03,42.805,6.029,0.032,-0.01,-0.021,104.0,106.0,102.0,13.4,1505.3,326.5,-0.7,1.8,2470.274,13.32,0.033,107.4
2020-06-06T03:43:03,42.805,6.029,0.065,-0.012,-0.015,106.0,108.0,102.0,13.4,1505.3,324.8,-0.7,1.8,2470.305,13.32,0.066,100.5
2020-06-06T03:46:03,42.805,6.029,0.072,0.0,-0.02,104.0,107.0,101.0,13.4,1505.3,323.4,-0.7,1.8,2470.309,13.32,0.071,90.0
2020-06-06T03:49:03,42.805,6.029,0.025,-0.014,-0.001,102.0,108.0,102.0,13.4,1505.3,328.1,-0.7,1.8,2470.319,13.32,0.028,119.3
2020-06-06T03:52:03,42.805,6.029,0.046,-0.012,0.006,105.0,106.0,102.0,13.4,1505.3,327.4,-0.7,1.8,2470.297,13.32,0.047,104.6
2020-06-06T03:55:03,42.805,6.029,0.041,-0.024,-0.041,104.0,107.0,102.0,13.3,1505.3,324.7,-0.7,1.8,2470.297,13.32,0.047,120.3
2020-06-06T03:58:03,42.805,6.029,0.055,-0.017,0.014,103.0,106.0,103.0,13.3,1505.3,325.4,-0.7,1.8,2470.313,13.32,0.057,107.2
2020-06-06T04:04:03,42.805,6.029,0.041,-0.005,0.0,104.0,107.0,102.0,13.4,1505.2,325.8,-0.7,1.8,2470.334,13.3,0.041,97.0
2020-06-06T04:07:03,42.805,6.029,0.055,-0.024,-0.03,106.0,106.0,101.0,13.4,1505.3,324.0,-0.7,1.8,2470.311,13.31,0.06,113.6
2020-06-06T04:10:03,42.805,6.029,0.019,-0.014,-0.037,104.0,107.0,101.0,13.4,1505.3,326.5,-0.7,1.9,2470.321,13.31,0.023,126.4
2020-06-06T04:13:03,42.805,6.029,0.055,-0.034,-0.019,104.0,107.0,101.0,13.4,1505.3,325.6,-0.7,1.9,2470.302,13.32,0.064,121.7
2020-06-06T04:16:03,42.805,6.029,0.058,-0.002,0.009,105.0,107.0,102.0,13.3,1505.3,325.5,-0.7,1.8,2470.306,13.32,0.058,92.0
2020-06-06T04:19:03,42.805,6.029,0.05,-0.035,-0.02,105.0,106.0,102.0,13.4,1505.3,324.0,-0.7,1.8,2470.347,13.32,0.061,125.0
2020-06-06T04:22:03,42.805,6.029,0.055,-0.027,-0.036,104.0,106.0,101.0,13.4,1505.3,328.5,-0.7,1.9,2470.349,13.32,0.061,116.1
2020-06-06T04:25:03,42.805,6.029,0.042,-0.022,0.001,105.0,106.0,101.0,13.4,1505.3,326.2,-0.7,1.8,2470.315,13.32,0.047,117.6
2020-06-06T04:28:03,42.805,6.029,0.051,-0.004,-0.012,105.0,107.0,102.0,13.3,1505.3,326.9,-0.7,1.8,2470.292,13.32,0.051,94.5
2020-06-06T04:31:03,42.805,6.029,0.05,-0.006,-0.004,105.0,106.0,102.0,13.3,1505.3,325.6,-0.7,1.8,2470.319,13.32,0.05,96.8
2020-06-06T04:34:03,42.805,6.029,0.051,-0.02,-0.001,103.0,106.0,102.0,13.3,1505.3,328.0,-0.7,1.9,2470.352,13.32,0.054,111.4
2020-06-06T04:37:03,42.805,6.029,0.034,-0.019,-0.025,105.0,107.0,102.0,13.4,1505.3,323.1,-0.7,1.8,2470.333,13.32,0.038,119.2
2020-06-06T04:40:03,42.805,6.029,0.045,-0.003,-0.009,105.0,107.0,102.0,13.3,1505.3,326.4,-0.7,1.8,2470.317,13.32,0.045,93.8
2020-06-06T04:43:03,42.805,6.029,0.051,-0.013,0.014,104.0,106.0,101.0,13.3,1505.3,326.4,-0.7,1.8,2470.331,13.32,0.052,104.3
2020-06-06T04:46:03,42.805,6.029,0.037,0.007,-0.002,104.0,107.0,102.0,13.4,1505.3,325.1,-0.7,1.9,2470.365,13.32,0.037,79.3
2020-06-06T04:49:03,42.805,6.029,0.028,-0.02,-0.017,103.0,107.0,102.0,13.4,1505.3,324.5,-0.7,1.8,2470.376,13.32,0.034,125.5
2020-06-06T04:52:03,42.805,6.029,0.062,-0.016,0.005,104.0,106.0,101.0,13.4,1505.3,327.2,-0.7,1.9,2470.401,13.32,0.064,104.5
2020-06-06T04:55:03,42.805,6.029,0.059,-0.023,0.016,105.0,106.0,101.0,13.3,1505.3,327.9,-0.7,1.8,2470.337,13.32,0.063,111.3
2020-06-06T04:58:03,42.805,6.029,0.035,-0.005,-0.025,104.0,106.0,102.0,13.4,1505.3,326.5,-0.7,1.8,2470.355,13.32,0.035,98.1
2020-06-06T05:04:03,42.805,6.029,0.042,-0.015,-0.029,104.0,107.0,102.0,13.4,1505.2,326.7,-0.8,1.8,2470.384,13.3,0.044,109.6
2020-06-06T05:07:03,42.805,6.029,0.041,0.0,-0.011,105.0,106.0,101.0,13.4,1505.3,323.4,-0.7,1.8,2470.375,13.31,0.041,90.0
2020-06-06T05:10:03,42.805,6.029,0.043,-0.011,-0.026,104.0,105.0,101.0,13.3,1505.3,324.3,-0.7,1.8,2470.356,13.31,0.044,104.3
2020-06-06T05:13:03,42.805,6.029,0.051,0.0,0.0,105.0,106.0,102.0,13.4,1505.3,323.4,-0.7,1.9,2470.371,13.32,0.051,90.0
2020-06-06T05:16:03,42.805,6.029,0.04,0.0,-0.023,105.0,107.0,102.0,13.4,1505.3,325.3,-0.7,1.9,2470.423,13.32,0.04,90.0
2020-06-06T05:19:03,42.805,6.029,0.051,-0.005,0.016,105.0,107.0,102.0,13.3,1505.3,325.9,-0.7,1.8,2470.394,13.32,0.051,95.6
2020-06-06T05:22:03,42.805,6.029,0.032,-0.002,-0.02,105.0,106.0,101.0,13.4,1505.3,325.8,-0.7,1.8,2470.399,13.32,0.032,93.6
2020-06-06T05:25:03,42.805,6.029,0.033,-0.019,-0.014,106.0,107.0,101.0,13.3,1505.3,326.8,-0.7,1.8,2470.416,13.32,0.038,119.9
2020-06-06T05:28:03,42.805,6.029,0.032,-0.005,-0.012,105.0,107.0,103.0,13.3,1505.3,326.5,-0.7,1.9,2470.388,13.32,0.032,98.9
2020-06-06T05:31:03,42.805,6.029,0.049,-0.011,-0.005,103.0,108.0,102.0,13.3,1505.3,326.1,-0.7,1.8,2470.378,13.32,0.05,102.7
2020-06-06T05:34:03,42.805,6.029,0.036,-0.008,0.006,104.0,107.0,102.0,13.4,1505.3,325.1,-0.7,1.8,2470.378,13.32,0.036,102.5
2020-06-06T05:37:03,42.805,6.029,0.015,-0.002,0.001,104.0,107.0,102.0,13.4,1505.3,326.9,-0.7,1.8,2470.38,13.32,0.015,97.6
2020-06-06T05:40:03,42.805,6.029,0.043,-0.021,-0.041,105.0,107.0,102.0,13.4,1505.3,325.7,-0.7,1.8,2470.421,13.32,0.047,116.0
2020-06-06T05:43:03,42.805,6.029,0.037,0.008,-0.019,105.0,107.0,102.0,13.3,1505.3,323.4,-0.7,1.8,2470.381,13.32,0.037,77.8
2020-06-06T05:46:03,42.805,6.029,0.041,-0.005,0.0,105.0,106.0,103.0,13.4,1505.3,327.3,-0.6,1.8,2470.388,13.32,0.041,97.0
2020-06-06T05:49:03,42.805,6.029,0.033,-0.013,-0.018,105.0,107.0,101.0,13.3,1505.3,325.8,-0.7,1.8,2470.412,13.32,0.035,111.5
2020-06-06T05:52:03,42.805,6.029,0.034,-0.001,-0.001,104.0,108.0,102.0,13.3,1505.3,326.9,-0.7,1.8,2470.412,13.32,0.034,91.7
2020-06-06T05:55:03,42.805,6.029,0.029,0.0,0.01,104.0,107.0,102.0,13.3,1505.3,326.9,-0.7,1.8,2470.423,13.32,0.028,90.0
2020-06-06T05:58:03,42.805,6.029,0.064,0.002,0.013,104.0,106.0,102.0,13.3,1505.3,323.4,-0.7,1.8,2470.431,13.32,0.064,88.2
2020-06-06T06:04:03,42.805,6.029,0.036,0.009,-0.018,105.0,108.0,100.0,13.4,1505.2,327.6,-0.7,1.8,2470.475,13.3,0.037,76.0
2020-06-06T06:07:03,42.805,6.029,0.056,0.008,0.0,106.0,108.0,101.0,13.3,1505.3,326.9,-0.7,1.8,2470.428,13.31,0.056,81.9
2020-06-06T06:10:03,42.805,6.029,0.038,0.004,-0.012,105.0,107.0,102.0,13.4,1505.3,326.6,-0.7,1.8,2470.406,13.31,0.038,84.0
2020-06-06T06:13:03,42.805,6.029,0.014,0.0,-0.024,106.0,108.0,101.0,13.4,1505.3,325.0,-0.7,1.9,2470.426,13.32,0.014,90.0
2020-06-06T06:16:03,42.805,6.029,0.006,-0.006,-0.042,104.0,107.0,102.0,13.3,1505.3,327.1,-0.7,1.9,2470.412,13.32,0.008,135.0
2020-06-06T06:19:03,42.805,6.029,0.039,-0.023,-0.038,105.0,108.0,101.0,13.3,1505.3,326.3,-0.7,1.9,2470.409,13.32,0.045,120.5
2020-06-06T06:22:03,42.805,6.029,0.024,0.007,-0.02,104.0,109.0,102.0,13.3,1505.3,326.4,-0.7,1.9,2470.458,13.32,0.025,73.7
2020-06-06T06:25:03,42.805,6.029,0.032,-0.024,-0.005,103.0,107.0,101.0,13.3,1505.3,326.5,-0.7,1.9,2470.426,13.32,0.04,126.9
2020-06-06T06:28:03,42.805,6.029,0.029,-0.009,-0.031,104.0,106.0,102.0,13.4,1505.3,326.4,-0.7,1.8,2470.402,13.32,0.03,107.2
2020-06-06T06:31:03,42.805,6.029,0.037,-0.031,-0.013,103.0,109.0,102.0,13.3,1505.3,325.9,-0.7,1.8,2470.426,13.32,0.048,130.0
2020-06-06T06:34:03,42.805,6.029,0.035,-0.021,0.007,105.0,107.0,101.0,13.4,1505.3,327.7,-0.7,1.9,2470.402,13.32,0.04,121.0
2020-06-06T06:37:03,42.805,6.029,0.055,-0.025,-0.009,105.0,107.0,101.0,13.3,1505.3,325.4,-0.7,1.8,2470.419,13.32,0.06,114.4
2020-06-06T06:40:03,42.805,6.029,0.039,-0.008,-0.017,104.0,107.0,100.0,13.4,1505.3,326.7,-0.7,1.8,2470.436,13.32,0.039,101.6
2020-06-06T06:43:03,42.805,6.029,0.05,0.0,-0.021,103.0,106.0,102.0,13.3,1505.3,323.2,-0.7,1.8,2470.421,13.32,0.05,90.0
2020-06-06T06:46:03,42.805,6.029,0.031,0.004,0.002,105.0,107.0,101.0,13.4,1505.3,322.9,-0.7,1.9,2470.415,13.32,0.031,82.7
2020-06-06T06:49:03,42.805,6.029,0.057,-0.011,0.002,105.0,109.0,101.0,13.4,1505.3,324.0,-0.7,1.8,2470.422,13.32,0.058,100.9
2020-06-06T06:52:03,42.805,6.029,0.046,0.006,-0.006,105.0,107.0,102.0,13.4,1505.3,324.6,-0.7,1.8,2470.412,13.32,0.046,82.6
2020-06-06T06:55:03,42.805,6.029,0.032,-0.007,-0.033,105.0,107.0,101.0,13.4,1505.3,324.1,-0.7,1.8,2470.422,13.32,0.032,102.3
2020-06-06T06:58:03,42.805,6.029,0.019,-0.028,-0.002,104.0,107.0,103.0,13.4,1505.3,324.4,-0.7,1.9,2470.429,13.32,0.033,145.8
2020-06-06T07:04:03,42.805,6.029,0.014,0.016,-0.025,103.0,108.0,101.0,13.4,1505.2,324.5,-0.7,1.8,2470.48,13.3,0.021,41.2
2020-06-06T07:07:03,42.805,6.029,0.035,-0.019,-0.016,104.0,108.0,102.0,13.4,1505.3,325.2,-0.7,1.8,2470.451,13.31,0.039,118.5
2020-06-06T07:10:03,42.805,6.029,0.059,-0.015,0.005,104.0,107.0,101.0,13.3,1505.3,324.3,-0.7,1.8,2470.458,13.31,0.06,104.3
2020-06-06T07:13:03,42.805,6.029,0.05,-0.02,0.015,104.0,107.0,101.0,13.3,1505.3,325.0,-0.7,1.9,2470.484,13.32,0.053,111.8
2020-06-06T07:16:03,42.805,6.029,0.04,0.01,0.013,105.0,107.0,102.0,13.4,1505.3,323.1,-0.7,1.8,2470.417,13.32,0.041,76.0
2020-06-06T07:19:03,42.805,6.029,0.034,-0.011,-0.001,104.0,107.0,102.0,13.4,1505.3,324.1,-0.7,1.8,2470.447,13.32,0.035,107.9
2020-06-06T07:22:03,42.805,6.029,0.047,-0.009,-0.026,105.0,106.0,101.0,13.4,1505.3,327.0,-0.7,1.8,2470.419,13.32,0.047,100.8
2020-06-06T07:25:03,42.805,6.029,0.039,-0.022,-0.021,104.0,106.0,101.0,13.3,1505.3,327.8,-0.7,1.8,2470.459,13.32,0.044,119.4
2020-06-06T07:28:03,42.805,6.029,0.022,-0.013,-0.031,104.0,107.0,101.0,13.3,1505.3,325.1,-0.7,1.9,2470.47,13.32,0.025,120.6
2020-06-06T07:31:03,42.805,6.029,0.013,-0.01,-0.01,104.0,107.0,101.0,13.3,1505.3,324.7,-0.7,1.8,2470.472,13.32,0.016,127.6
2020-06-06T07:34:03,42.805,6.029,0.043,-0.005,-0.016,104.0,108.0,102.0,13.4,1505.3,327.7,-0.7,1.8,2470.444,13.32,0.043,96.6
2020-06-06T07:37:03,42.805,6.029,0.041,0.004,-0.013,104.0,108.0,102.0,13.4,1505.3,327.2,-0.7,1.8,2470.431,13.32,0.041,84.4
2020-06-06T07:40:03,42.805,6.029,0.062,-0.006,0.0,104.0,107.0,102.0,13.4,1505.3,326.7,-0.7,1.8,2470.414,13.32,0.062,95.5
2020-06-06T07:43:03,42.805,6.029,0.043,-0.008,0.023,105.0,107.0,102.0,13.4,1505.3,324.1,-0.7,1.8,2470.451,13.32,0.043,100.5
2020-06-06T07:46:03,42.805,6.029,0.063,-0.031,-0.03,105.0,106.0,103.0,13.3,1505.3,327.0,-0.7,1.9,2470.449,13.32,0.07,116.2
2020-06-06T07:49:03,42.805,6.029,0.025,-0.002,-0.035,105.0,108.0,101.0,13.4,1505.3,327.2,-0.7,1.8,2470.449,13.32,0.025,94.6
2020-06-06T07:52:03,42.805,6.029,0.048,-0.001,0.008,105.0,107.0,101.0,13.4,1505.3,323.3,-0.7,1.8,2470.436,13.32,0.048,91.2
2020-06-06T07:55:03,42.805,6.029,0.023,-0.025,-0.011,104.0,108.0,102.0,13.4,1505.3,326.9,-0.7,1.8,2470.423,13.32,0.033,137.4
2020-06-06T07:58:03,42.805,6.029,0.041,0.0,-0.026,104.0,108.0,102.0,13.4,1505.3,326.3,-0.7,1.8,2470.395,13.32,0.041,90.0
2020-06-06T08:04:03,42.805,6.029,0.053,0.012,0.018,104.0,107.0,101.0,13.4,1505.2,326.6,-0.8,1.8,2470.444,13.3,0.054,77.2
2020-06-06T08:07:03,42.805,6.029,0.03,-0.001,-0.027,104.0,108.0,101.0,13.4,1505.3,324.4,-0.7,1.8,2470.465,13.31,0.03,91.9
2020-06-06T08:10:03,42.805,6.029,0.073,-0.001,-0.017,104.0,106.0,101.0,13.4,1505.3,327.8,-0.7,1.8,2470.412,13.31,0.073,90.8
2020-06-06T08:13:03,42.805,6.029,0.064,-0.004,0.003,104.0,106.0,102.0,13.4,1505.3,326.6,-0.7,1.8,2470.422,13.32,0.064,93.6
2020-06-06T08:16:03,42.805,6.029,0.04,-0.008,0.0,104.0,108.0,101.0,13.4,1505.3,328.1,-0.7,1.8,2470.439,13.32,0.04,101.3
2020-06-06T08:19:03,42.805,6.029,0.039,0.0,-0.012,105.0,107.0,102.0,13.4,1505.3,328.1,-0.7,1.8,2470.433,13.32,0.039,90.0
2020-06-06T08:22:03,42.805,6.029,0.035,-0.012,-0.017,104.0,108.0,102.0,13.4,1505.3,328.2,-0.7,1.8,2470.423,13.32,0.037,108.9
2020-06-06T08:25:03,42.805,6.029,0.035,-0.015,-0.01,105.0,107.0,101.0,13.3,1505.3,328.1,-0.7,1.8,2470.439,13.32,0.038,113.2
2020-06-06T08:28:03,42.805,6.029,0.029,-0.007,-0.011,104.0,108.0,101.0,13.3,1505.3,324.0,-0.7,1.8,2470.41,13.32,0.029,103.6
2020-06-06T08:31:03,42.805,6.029,0.031,-0.005,-0.031,103.0,107.0,101.0,13.3,1505.3,326.9,-0.7,1.8,2470.467,13.32,0.031,99.2
2020-06-06T08:34:03,42.805,6.029,0.031,-0.003,-0.025,103.0,107.0,102.0,13.3,1505.3,324.8,-0.7,1.8,2470.397,13.32,0.031,95.5
2020-06-06T08:37:03,42.805,6.029,0.056,-0.009,-0.033,104.0,106.0,101.0,13.4,1505.3,324.3,-0.7,1.8,2470.381,13.32,0.056,99.1
2020-06-06T08:40:03,42.805,6.029,0.039,-0.016,0.001,103.0,107.0,102.0,13.3,1505.3,324.3,-0.7,1.8,2470.451,13.32,0.042,112.3
2020-06-06T08:43:03,42.805,6.029,0.037,-0.013,-0.002,104.0,107.0,101.0,13.3,1505.3,326.7,-0.7,1.8,2470.404,13.32,0.039,109.4
2020-06-06T08:46:03,42.805,6.029,0.057,-0.025,-0.035,104.0,106.0,102.0,13.4,1505.3,325.7,-0.7,1.8,2470.415,13.32,0.062,113.7
2020-06-06T08:49:03,42.805,6.029,0.046,-0.022,-0.018,106.0,106.0,101.0,13.4,1505.3,322.5,-0.7,1.8,2470.372,13.32,0.05,115.6
2020-06-06T08:52:03,42.805,6.029,0.053,-0.013,0.032,105.0,105.0,101.0,13.4,1505.3,327.1,-0.7,1.8,2470.377,13.32,0.054,103.8
2020-06-06T08:55:03,42.805,6.029,0.031,-0.019,-0.055,104.0,105.0,102.0,13.4,1505.3,326.7,-0.7,1.8,2470.387,13.32,0.036,121.5
2020-06-06T08:58:03,42.805,6.029,0.039,-0.014,-0.022,104.0,106.0,102.0,13.4,1505.3,322.8,-0.7,1.8,2470.348,13.32,0.041,109.7
2020-06-06T09:04:03,42.805,6.029,0.039,-0.02,-0.026,103.0,106.0,102.0,13.4,1505.2,326.9,-0.8,1.8,2470.445,13.3,0.043,117.1
2020-06-06T09:07:03,42.805,6.029,0.034,-0.001,-0.006,104.0,108.0,102.0,13.4,1505.3,324.5,-0.7,1.8,2470.425,13.31,0.034,91.7
2020-06-06T09:10:03,42.805,6.029,0.025,-0.001,0.014,103.0,107.0,101.0,13.3,1505.3,324.6,-0.7,1.8,2470.386,13.31,0.025,92.3
2020-06-06T09:13:03,42.805,6.029,0.028,0.004,-0.012,104.0,109.0,102.0,13.4,1505.3,325.3,-0.7,1.9,2470.368,13.32,0.028,81.9
2020-06-06T09:16:03,42.805,6.029,0.048,-0.002,0.011,104.0,106.0,101.0,13.4,1505.3,324.7,-0.7,1.8,2470.42,13.32,0.048,92.4
2020-06-06T09:19:03,42.805,6.029,0.063,-0.006,-0.009,104.0,105.0,101.0,13.4,1505.3,323.4,-0.7,1.8,2470.383,13.32,0.063,95.4
2020-06-06T09:22:03,42.805,6.029,0.05,-0.023,0.007,105.0,105.0,102.0,13.4,1505.3,325.3,-0.7,1.8,2470.368,13.32,0.055,114.7
2020-06-06T09:25:03,42.805,6.029,0.024,-0.014,0.014,105.0,107.0,101.0,13.3,1505.3,324.1,-0.7,1.9,2470.418,13.32,0.027,120.3
2020-06-06T09:28:03,42.805,6.029,0.031,-0.014,-0.007,104.0,108.0,102.0,13.3,1505.3,325.0,-0.7,1.8,2470.415,13.32,0.034,114.3
2020-06-06T09:31:03,42.805,6.029,0.024,-0.01,-0.009,104.0,106.0,102.0,13.4,1505.3,326.9,-0.7,1.9,2470.369,13.32,0.026,112.6
2020-06-06T09:34:03,42.805,6.029,0.038,-0.024,-0.024,103.0,106.0,102.0,13.4,1505.3,324.8,-0.7,1.8,2470.376,13.32,0.044,122.3
2020-06-06T09:37:03,42.805,6.029,0.05,-0.01,-0.011,103.0,106.0,102.0,13.4,1505.3,324.3,-0.7,1.8,2470.335,13.32,0.05,101.3
2020-06-06T09:40:03,42.805,6.029,0.021,-0.031,-0.028,104.0,106.0,101.0,13.3,1505.3,326.5,-0.7,1.8,2470.344,13.32,0.037,145.9
2020-06-06T09:43:03,42.805,6.029,0.029,-0.012,-0.012,104.0,105.0,101.0,13.4,1505.3,324.5,-0.7,1.8,2470.37,13.32,0.031,112.5
2020-06-06T09:46:03,42.805,6.029,0.05,-0.008,0.017,105.0,105.0,101.0,13.4,1505.3,326.1,-0.7,1.8,2470.354,13.32,0.05,99.1
2020-06-06T09:49:03,42.805,6.029,0.02,-0.014,-0.049,104.0,105.0,101.0,13.3,1505.3,325.3,-0.7,1.8,2470.368,13.32,0.024,125.0
2020-06-06T09:52:03,42.805,6.029,0.035,-0.025,-0.034,104.0,106.0,101.0,13.3,1505.3,323.4,-0.7,1.8,2470.384,13.32,0.043,125.5
2020-06-06T09:55:03,42.805,6.029,0.058,-0.016,0.009,105.0,107.0,102.0,13.4,1505.3,326.0,-0.7,1.9,2470.338,13.32,0.06,105.4
2020-06-06T09:58:03,42.805,6.029,0.023,-0.022,-0.008,104.0,106.0,101.0,13.4,1505.3,323.3,-0.7,1.8,2470.367,13.32,0.031,133.7